Location: Erp
(42.9417°N, 1.2009°E)
Time: 04:42:12
(UTC+00:00)

Cosmos 2218 Rocket - Visible Passes

Search period start: 19 April 2026 00:00
Search period end: 29 April 2026 00:00
Orbit: 954 x 1006 km, 82.9° (Epoch: 18 April)

Date Brightness Start Highest point End Pass type
(mag) Time Alt. Az. Time Alt. Az. Time Alt. Az.
19 Apr 4.2 20:06:27 10° SSW 20:12:34 71° W 20:18:44 10° N visible
19 Apr 6.9 21:58:03 10° WNW 21:59:16 11° WNW 22:00:29 10° NW visible
20 Apr 5.3 20:33:50 10° SW 20:39:30 39° WNW 20:45:13 10° N visible
21 Apr 4.0 19:14:41 10° S 19:20:40 60° E 19:26:44 10° NNE visible
21 Apr 6.3 21:02:02 10° WSW 21:06:37 22° WNW 21:11:16 10° NNW visible
22 Apr 4.2 19:41:16 10° SSW 19:47:24 76° W 19:53:35 10° N visible
22 Apr 6.9 21:31:56 10° W 21:33:59 12° WNW 21:36:04 10° NW visible
23 Apr 5.3 20:08:32 10° SW 20:14:17 42° WNW 20:20:07 10° N visible
24 Apr 6.3 20:36:36 10° WSW 20:41:23 23° WNW 20:46:14 10° NNW visible
25 Apr 4.1 19:16:05 10° S 19:22:13 82° W 19:28:26 10° N visible
25 Apr 6.9 21:06:05 10° W 21:08:44 13° WNW 21:11:23 10° NW visible
26 Apr 7.4 04:28:10 10° NNE 04:31:23 14° ENE 04:34:35 10° E visible
26 Apr 5.2 19:43:15 10° SSW 19:49:05 45° WNW 19:55:01 10° N visible
27 Apr 6.3 20:11:11 10° SW 20:16:10 25° WNW 20:21:12 10° NNW visible
28 Apr 6.9 20:40:23 10° W 20:43:28 14° WNW 20:46:35 10° NNW visible
